Date,Installs,Update checks
2022-02-26,4,0
2022-02-27,2,0
2022-02-28,3,1
2022-03-01,0,0
2022-03-02,2,0
2022-03-03,0,0
2022-03-04,0,0
2022-03-05,2,0
2022-03-06,1,0
2022-03-07,0,0
2022-03-08,0,0
2022-03-09,0,0
2022-03-10,0,0
2022-03-11,0,0
2022-03-12,0,0
2022-03-13,0,0
2022-03-14,1,0
2022-03-15,0,0
2022-03-16,0,0
2022-03-17,1,0
2022-03-18,0,0
2022-03-19,0,0
2022-03-20,0,0
2022-03-21,0,0
2022-03-22,0,0
2022-03-23,0,0
2022-03-24,0,0
2022-03-25,0,0
2022-03-26,0,0
2022-03-27,0,0
2022-03-28,1,0
2022-03-29,0,0
2022-03-30,0,0
2022-03-31,0,1
2022-04-01,0,0
2022-04-02,1,0
2022-04-03,0,0
2022-04-04,2,0
2022-04-05,0,0
2022-04-06,0,0
2022-04-07,0,0
2022-04-08,0,0
2022-04-09,0,0
2022-04-10,0,0
2022-04-11,1,0
2022-04-12,0,1
2022-04-13,0,0
2022-04-14,0,0
2022-04-15,0,0
2022-04-16,0,0
2022-04-17,3,0
2022-04-18,0,0
2022-04-19,1,0
2022-04-20,0,0
2022-04-21,0,0
2022-04-22,0,0
2022-04-23,0,0
2022-04-24,1,0
2022-04-25,0,0
2022-04-26,0,0
2022-04-27,0,0
2022-04-28,0,0
2022-04-29,0,0
2022-04-30,0,0
2022-05-01,0,0
2022-05-02,0,0
2022-05-03,0,0
2022-05-04,0,0
2022-05-05,0,0
2022-05-06,1,0
2022-05-07,0,0
2022-05-08,0,0
2022-05-09,0,0
2022-05-10,0,0
2022-05-11,0,0
2022-05-12,0,0
2022-05-13,0,0
2022-05-14,2,1
2022-05-15,0,0
2022-05-16,0,0
2022-05-17,0,0
2022-05-18,0,0
2022-05-19,0,0
2022-05-20,0,0
2022-05-21,0,0
2022-05-22,0,0
2022-05-23,0,0
2022-05-24,0,0
2022-05-25,0,0
2022-05-26,0,0
2022-05-27,1,0
2022-05-28,0,1
2022-05-29,0,0
2022-05-30,0,1
2022-05-31,0,1
2022-06-01,0,1
2022-06-02,0,1
2022-06-03,1,1
2022-06-04,0,1
2022-06-05,2,1
2022-06-06,2,0
2022-06-07,0,1
2022-06-08,0,1
2022-06-09,0,1
2022-06-10,1,1
2022-06-11,0,1
2022-06-12,1,1
2022-06-13,0,1
2022-06-14,0,1
2022-06-15,0,1
2022-06-16,0,1
2022-06-17,0,1
2022-06-18,0,1
2022-06-19,2,0
2022-06-20,0,1
2022-06-21,2,1
2022-06-22,0,1
2022-06-23,0,1
2022-06-24,0,2
2022-06-25,0,1
2022-06-26,0,1
2022-06-27,0,1
2022-06-28,0,1
2022-06-29,0,0
2022-06-30,1,0
2022-07-01,0,1
2022-07-02,0,0
2022-07-03,0,1
2022-07-04,0,0
2022-07-05,0,1
2022-07-06,0,0
2022-07-07,0,0
2022-07-08,0,0
2022-07-09,0,0
2022-07-10,0,0
2022-07-11,0,1
2022-07-12,0,0
2022-07-13,1,0
2022-07-14,0,1
2022-07-15,1,0
2022-07-16,0,0
2022-07-17,0,0
2022-07-18,0,0
2022-07-19,0,0
2022-07-20,4,0
2022-07-21,0,1
2022-07-22,0,0
2022-07-23,0,0
2022-07-24,0,0
2022-07-25,0,0
2022-07-26,0,0
2022-07-27,0,0
2022-07-28,0,0
2022-07-29,0,0
2022-07-30,0,0
2022-07-31,0,0
2022-08-01,1,0
2022-08-02,2,2
2022-08-03,1,0
2022-08-04,1,1
2022-08-05,0,0
2022-08-06,0,0
2022-08-07,0,0
2022-08-08,0,1
2022-08-09,0,1
2022-08-10,1,1
2022-08-11,1,1
2022-08-12,0,0
2022-08-13,0,1
2022-08-14,1,0
2022-08-15,0,1
2022-08-16,0,1
2022-08-17,1,1
2022-08-18,0,0
2022-08-19,0,1
2022-08-20,0,0
2022-08-21,0,0
2022-08-22,0,1
2022-08-23,2,0
2022-08-24,0,1
2022-08-25,0,0
2022-08-26,1,0
2022-08-27,0,2
2022-08-28,1,0
2022-08-29,1,0
2022-08-30,0,0
2022-08-31,2,1
2022-09-01,0,0
2022-09-02,0,0
2022-09-03,1,1
2022-09-04,0,0
2022-09-05,0,0
2022-09-06,0,1
2022-09-07,0,0
2022-09-08,0,0
2022-09-09,0,0
2022-09-10,0,2
2022-09-11,0,0
2022-09-12,1,0
2022-09-13,2,0
2022-09-14,0,0
2022-09-15,0,1
2022-09-16,0,0
2022-09-17,1,0
2022-09-18,0,0
2022-09-19,0,1
2022-09-20,0,1
2022-09-21,0,1
2022-09-22,0,1
2022-09-23,0,1
2022-09-24,0,0
2022-09-25,0,4
2022-09-26,0,1
2022-09-27,0,0
2022-09-28,1,0
2022-09-29,0,0
2022-09-30,0,0
2022-10-01,0,0
2022-10-02,0,1
2022-10-03,0,0
2022-10-04,1,0
2022-10-05,0,0
2022-10-06,0,0
2022-10-07,0,0
2022-10-08,0,1
2022-10-09,1,0
2022-10-10,0,1
2022-10-11,0,0
2022-10-12,0,0
2022-10-13,0,1
2022-10-14,0,2
2022-10-15,0,0
2022-10-16,0,2
2022-10-17,0,2
2022-10-18,0,0
2022-10-19,1,2
2022-10-20,0,2
2022-10-21,0,0
2022-10-22,2,0
2022-10-23,0,1
2022-10-24,1,1
2022-10-25,0,1
2022-10-26,0,2
2022-10-27,0,0
2022-10-28,0,2
2022-10-29,0,2
2022-10-30,1,2
2022-10-31,1,2
2022-11-01,0,1
2022-11-02,0,0
2022-11-03,0,2
2022-11-04,0,2
2022-11-05,0,1
2022-11-06,0,2
2022-11-07,1,2
2022-11-08,0,0
2022-11-09,0,3
2022-11-10,0,3
2022-11-11,0,1
2022-11-12,0,4
2022-11-13,0,2
2022-11-14,1,1
2022-11-15,0,2
2022-11-16,1,0
2022-11-17,0,2
2022-11-18,0,2
2022-11-19,0,0
2022-11-20,0,1
2022-11-21,0,1
2022-11-22,0,0
2022-11-23,0,1
2022-11-24,0,0
2022-11-25,0,0
2022-11-26,0,0
2022-11-27,1,2
2022-11-28,0,1
2022-11-29,0,0
2022-11-30,1,0
2022-12-01,0,1
2022-12-02,0,2
2022-12-03,0,0
2022-12-04,0,1
2022-12-05,0,2
2022-12-06,0,2
2022-12-07,0,0
2022-12-08,0,1
2022-12-09,0,2
2022-12-10,2,0
2022-12-11,0,1
2022-12-12,0,2
2022-12-13,0,1
2022-12-14,0,0
2022-12-15,0,2
2022-12-16,0,3
2022-12-17,1,1
2022-12-18,41,6
2022-12-19,89,8
2022-12-20,47,7
2022-12-21,33,15
2022-12-22,27,8
2022-12-23,16,12
2022-12-24,17,10
2022-12-25,14,11
2022-12-26,16,10
2022-12-27,25,14
2022-12-28,32,11
2022-12-29,19,18
2022-12-30,11,16
2022-12-31,10,17
2023-01-01,11,20
2023-01-02,9,17
2023-01-03,8,24
2023-01-04,7,22
2023-01-05,7,23
2023-01-06,9,26
2023-01-07,6,24
2023-01-08,7,26
2023-01-09,8,23
2023-01-10,4,22
2023-01-11,6,31
2023-01-12,3,23
2023-01-13,7,29
2023-01-14,5,19
2023-01-15,8,26
2023-01-16,7,29
2023-01-17,8,24
2023-01-18,1,26
2023-01-19,6,24
2023-01-20,5,23
2023-01-21,3,21
2023-01-22,5,29
2023-01-23,2,24
2023-01-24,3,29
2023-01-25,1,23
2023-01-26,5,26
2023-01-27,2,24
2023-01-28,2,26
2023-01-29,3,22
2023-01-30,3,28
2023-01-31,3,30
2023-02-01,2,34
2023-02-02,2,24
2023-02-03,2,37
2023-02-04,4,21
2023-02-05,3,33
2023-02-06,3,26
2023-02-07,13,29
2023-02-08,1,25
2023-02-09,2,26
2023-02-10,3,28
2023-02-11,0,28
2023-02-12,3,27
2023-02-13,3,30
2023-02-14,0,27
2023-02-15,2,26
2023-02-16,1,33
2023-02-17,2,32
2023-02-18,0,25
2023-02-19,1,29
2023-02-20,6,28
2023-02-21,0,28
2023-02-22,1,27
2023-02-23,2,36
2023-02-24,1,27
2023-02-25,15,33
2023-02-26,39,28
2023-02-27,46,36
2023-02-28,15,40
2023-03-01,20,34
2023-03-02,15,35
2023-03-03,11,34
2023-03-04,20,37
2023-03-05,5,40
2023-03-06,13,32
2023-03-07,5,31
2023-03-08,5,36
2023-03-09,18,38
2023-03-10,7,33
2023-03-11,6,33
2023-03-12,8,33
2023-03-13,11,37
2023-03-14,3,34
2023-03-15,6,30
2023-03-16,4,36
2023-03-17,2,28
2023-03-18,7,30
2023-03-19,7,31
2023-03-20,2,34
2023-03-21,1,38
2023-03-22,7,35
2023-03-23,4,40
2023-03-24,4,40
2023-03-25,6,39
2023-03-26,5,37
2023-03-27,3,31
2023-03-28,3,39
2023-03-29,4,37
2023-03-30,7,38
2023-03-31,7,35
2023-04-01,2,37
2023-04-02,4,33
2023-04-03,7,35
2023-04-04,4,34
2023-04-05,5,34
2023-04-06,3,35
2023-04-07,3,38
2023-04-08,1,31
2023-04-09,9,30
2023-04-10,5,37
2023-04-11,3,38
2023-04-12,3,43
2023-04-13,0,39
2023-04-14,3,32
2023-04-15,2,32
2023-04-16,2,36
2023-04-17,2,43
2023-04-18,4,36
2023-04-19,3,31
2023-04-20,3,30
2023-04-21,5,32
2023-04-22,10,38
2023-04-23,1,33
2023-04-24,3,33
2023-04-25,3,27
2023-04-26,4,36
2023-04-27,3,35
2023-04-28,0,32
2023-04-29,2,34
2023-04-30,4,35
2023-05-01,1,33
2023-05-02,2,39
2023-05-03,4,36
2023-05-04,2,36
2023-05-05,2,37
2023-05-06,2,37
2023-05-07,0,32
2023-05-08,0,37
2023-05-09,0,36
2023-05-10,0,34
2023-05-11,0,34
2023-05-12,0,33
2023-05-13,0,29
2023-05-14,0,33
2023-05-15,0,33
2023-05-16,3,35
2023-05-17,2,30
2023-05-18,5,30
2023-05-19,0,36
2023-05-20,3,34
2023-05-21,3,31
2023-05-22,0,31
2023-05-23,1,36
2023-05-24,6,31
2023-05-25,2,33
2023-05-26,2,37
2023-05-27,0,33
2023-05-28,4,28
2023-05-29,6,30
2023-05-30,3,29
2023-05-31,8,34
2023-06-01,3,33
2023-06-02,4,22
2023-06-03,4,33
2023-06-04,7,29
2023-06-05,4,35
2023-06-06,5,33
2023-06-07,2,33
2023-06-08,1,35
2023-06-09,3,35
2023-06-10,1,31
2023-06-11,3,37
2023-06-12,2,36
2023-06-13,5,40
2023-06-14,5,33
2023-06-15,6,41
2023-06-16,4,38
2023-06-17,2,35
2023-06-18,3,35
2023-06-19,5,41
2023-06-20,2,35
2023-06-21,6,34
2023-06-22,2,42
2023-06-23,2,30
2023-06-24,4,30
2023-06-25,7,38
2023-06-26,2,37
2023-06-27,3,33
2023-06-28,2,32
2023-06-29,1,40
2023-06-30,1,26
2023-07-01,2,31
2023-07-02,0,37
2023-07-03,1,36
2023-07-04,1,34
2023-07-05,2,41
2023-07-06,7,37
2023-07-07,5,34
2023-07-08,1,33
2023-07-09,3,31
2023-07-10,4,39
2023-07-11,3,32
2023-07-12,3,32
2023-07-13,2,44
2023-07-14,5,33
2023-07-15,0,33
2023-07-16,5,34
2023-07-17,3,37
2023-07-18,4,38
2023-07-19,2,38
2023-07-20,1,40
2023-07-21,3,32
2023-07-22,2,35
2023-07-23,3,38
2023-07-24,2,34
2023-07-25,1,42
2023-07-26,1,41
2023-07-27,3,33
2023-07-28,3,44
2023-07-29,3,39
2023-07-30,3,33
2023-07-31,2,38
2023-08-01,2,36
2023-08-02,3,35
2023-08-03,2,33
2023-08-04,0,40
2023-08-05,3,32
2023-08-06,2,30
2023-08-07,0,36
2023-08-08,2,35
2023-08-09,3,36
2023-08-10,3,29
2023-08-11,3,34
2023-08-12,7,33
2023-08-13,2,33
2023-08-14,1,36
2023-08-15,1,32
2023-08-16,4,35
2023-08-17,2,34
2023-08-18,2,32
2023-08-19,5,33
2023-08-20,3,40
2023-08-21,5,30
2023-08-22,2,39
2023-08-23,2,32
2023-08-24,2,36
2023-08-25,5,35
2023-08-26,3,34
2023-08-27,3,31
2023-08-28,2,37
2023-08-29,4,34
2023-08-30,2,41
2023-08-31,3,39
2023-09-01,1,33
2023-09-02,2,29
2023-09-03,3,38
2023-09-04,0,35
2023-09-05,4,35
2023-09-06,3,30
2023-09-07,2,30
2023-09-08,6,37
2023-09-09,2,29
2023-09-10,2,38
2023-09-11,3,39
2023-09-12,2,42
2023-09-13,3,30
2023-09-14,4,41
2023-09-15,5,33
2023-09-16,4,32
2023-09-17,3,37
2023-09-18,7,39
2023-09-19,1,35
2023-09-20,2,37
2023-09-21,4,38
2023-09-22,2,36
2023-09-23,2,37
2023-09-24,3,41
2023-09-25,4,41
2023-09-26,2,35
2023-09-27,1,30
2023-09-28,2,36
2023-09-29,5,44
2023-09-30,2,38
2023-10-01,1,33
2023-10-02,4,37
2023-10-03,1,33
2023-10-04,1,33
2023-10-05,1,30
2023-10-06,2,39
2023-10-07,1,34
2023-10-08,0,37
2023-10-09,1,34
2023-10-10,1,32
2023-10-11,3,32
2023-10-12,5,32
2023-10-13,2,33
2023-10-14,3,29
2023-10-15,1,39
2023-10-16,3,32
2023-10-17,2,36
2023-10-18,2,36
2023-10-19,2,39
2023-10-20,1,36
2023-10-21,1,29
2023-10-22,2,35
2023-10-23,2,44
2023-10-24,4,42
2023-10-25,2,42
2023-10-26,3,35
2023-10-27,1,33
2023-10-28,0,41
2023-10-29,2,36
2023-10-30,1,38
2023-10-31,2,32
2023-11-01,3,39
2023-11-02,1,38
2023-11-03,0,35
2023-11-04,2,36
2023-11-05,3,35
2023-11-06,2,35
2023-11-07,5,37
2023-11-08,2,34
2023-11-09,2,31
2023-11-10,5,30
2023-11-11,0,32
2023-11-12,0,27
2023-11-13,2,28
2023-11-14,2,35
2023-11-15,5,30
2023-11-16,7,34
2023-11-17,1,32
2023-11-18,2,31
2023-11-19,1,31
2023-11-20,1,28
2023-11-21,0,21
2023-11-22,3,26
2023-11-23,3,29
2023-11-24,0,29
2023-11-25,2,20
2023-11-26,4,28
2023-11-27,0,25
2023-11-28,2,28
2023-11-29,1,30
2023-11-30,2,27
2023-12-01,2,29
2023-12-02,0,29
2023-12-03,1,20
2023-12-04,4,29
2023-12-05,1,26
2023-12-06,2,23
2023-12-07,2,21
2023-12-08,1,185
2023-12-09,2,70
2023-12-10,2,45
2023-12-11,0,36
2023-12-12,4,40
2023-12-13,2,31
2023-12-14,2,24
2023-12-15,5,29
2023-12-16,3,29
2023-12-17,4,38
2023-12-18,1,33
2023-12-19,0,29
2023-12-20,0,27
2023-12-21,0,34
2023-12-22,2,33
2023-12-23,0,24
2023-12-24,0,22
2023-12-25,0,19
2023-12-26,2,22
2023-12-27,0,27
2023-12-28,0,24
2023-12-29,0,27
2023-12-30,2,30
2023-12-31,1,27
2024-01-01,0,23
2024-01-02,1,29
2024-01-03,0,28
2024-01-04,6,29
2024-01-05,0,26
2024-01-06,2,24
2024-01-07,1,34
2024-01-08,0,26
2024-01-09,1,30
2024-01-10,0,36
2024-01-11,1,32
2024-01-12,1,30
2024-01-13,0,23
2024-01-14,1,23
2024-01-15,0,33
2024-01-16,0,22
2024-01-17,1,28
2024-01-18,0,28
2024-01-19,0,33
2024-01-20,1,26
2024-01-21,2,30
2024-01-22,1,28
2024-01-23,0,28
2024-01-24,2,24
2024-01-25,0,30
2024-01-26,0,26
2024-01-27,0,33
2024-01-28,1,30
2024-01-29,3,26
2024-01-30,1,27
2024-01-31,0,22
2024-02-01,2,23
2024-02-02,0,20
2024-02-03,0,28
2024-02-04,0,19
2024-02-05,1,23
2024-02-06,0,23
2024-02-07,4,28
2024-02-08,0,22
2024-02-09,0,24
2024-02-10,2,25
2024-02-11,1,28
2024-02-12,2,29
2024-02-13,0,24
2024-02-14,0,25
2024-02-15,0,28
2024-02-16,1,25
2024-02-17,2,25
2024-02-18,0,22
2024-02-19,2,29
2024-02-20,1,34
2024-02-21,1,26
2024-02-22,3,27
2024-02-23,2,24
2024-02-24,0,21
2024-02-25,0,35
2024-02-26,0,24
2024-02-27,1,32
2024-02-28,0,20
2024-02-29,1,32
2024-03-01,0,31
2024-03-02,0,21
2024-03-03,0,26
2024-03-04,0,30
2024-03-05,0,24
2024-03-06,2,18
2024-03-07,0,30
2024-03-08,0,28
2024-03-09,0,24
2024-03-10,1,28
2024-03-11,3,32
2024-03-12,0,23
2024-03-13,0,28
2024-03-14,2,24
2024-03-15,0,31
2024-03-16,0,26
2024-03-17,2,27
2024-03-18,1,22
2024-03-19,1,22
2024-03-20,1,25
2024-03-21,0,26
2024-03-22,0,35
2024-03-23,3,30
2024-03-24,2,24
2024-03-25,0,36
2024-03-26,1,29
2024-03-27,0,33
2024-03-28,3,24
2024-03-29,0,26
2024-03-30,3,29
2024-03-31,3,30
2024-04-01,0,30
2024-04-02,0,27
2024-04-03,1,36
2024-04-04,0,29
2024-04-05,1,28
2024-04-06,0,32
2024-04-07,1,33
2024-04-08,0,28
2024-04-09,0,29
2024-04-10,1,38
2024-04-11,0,37
2024-04-12,0,34
2024-04-13,0,32
2024-04-14,0,25
2024-04-15,2,33
2024-04-16,0,37
2024-04-17,1,33
2024-04-18,0,39
2024-04-19,0,39
2024-04-20,0,36
2024-04-21,1,32
2024-04-22,2,31
2024-04-23,1,39
2024-04-24,0,35
2024-04-25,0,38
2024-04-26,1,24
2024-04-27,0,33
2024-04-28,2,45
2024-04-29,0,40
2024-04-30,0,34
2024-05-01,0,37
2024-05-02,0,31
2024-05-03,1,30
2024-05-04,1,36
2024-05-05,1,32
2024-05-06,0,44
2024-05-07,0,32
2024-05-08,2,37
2024-05-09,0,35
2024-05-10,0,28
2024-05-11,2,34
2024-05-12,0,32
2024-05-13,1,28
2024-05-14,0,33
2024-05-15,0,32
2024-05-16,0,31
2024-05-17,0,32
2024-05-18,0,32
2024-05-19,0,23
2024-05-20,1,26
2024-05-21,3,27
2024-05-22,0,33
2024-05-23,1,29
2024-05-24,1,28
2024-05-25,1,35
2024-05-26,1,31
2024-05-27,0,34
2024-05-28,3,29
2024-05-29,2,32
2024-05-30,3,29
2024-05-31,0,27
2024-06-01,1,30
2024-06-02,0,29
2024-06-03,1,37
2024-06-04,1,27
2024-06-05,0,26
2024-06-06,1,33
2024-06-07,2,29
2024-06-08,2,26
2024-06-09,1,37
2024-06-10,0,26
2024-06-11,1,33
2024-06-12,0,27
2024-06-13,0,32
2024-06-14,2,35
2024-06-15,1,34
2024-06-16,0,34
2024-06-17,2,29
2024-06-18,0,0
